FW6176 Weather Reports


Display with metric or nautical units.
time (UTC)temp
F
wind
direction
speed
MPH
gust
MPH
rain 1hr
in
rain 24hr
in
rain mn
in
humidity
%
barometer
mb
20260505090023 64 119 0.0 0.0 0.00 0.44 0.00 67 1005.2
20260505084526 64 114 0.0 1.0 0.00 0.44 0.00 67 1005.1
20260505083021 64 116 0.0 1.0 0.00 0.44 0.00 68 1004.9
20260505081529 65 117 0.0 2.0 0.00 0.44 0.00 66 1005.0
20260505080016 66 302 0.0 2.0 0.00 0.44 0.00 63 1005.4
20260505074514 66 85 0.0 1.0 0.00 0.44 0.00 62 1005.4
20260505073014 66 310 0.0 3.0 0.00 0.44 0.00 61 1005.6
20260505071524 67 40 0.0 3.0 0.00 0.44 0.00 60 1005.8
20260505070010 68 302 1.0 8.0 0.00 0.44 0.00 58 1006.3
20260505064507 70 300 7.0 14.0 0.00 0.44 0.00 55 1006.0
20260505063100 72 306 4.0 7.0 0.00 0.44 0.00 56 1005.0
20260505061601 72 6 0.0 4.0 0.00 0.44 0.00 56 1004.1
20260505060056 72 77 1.0 5.0 0.00 0.44 0.00 56 1004.0
20260505054557 72 207 0.0 3.0 0.00 0.44 0.00 56 1004.0
20260505053102 72 268 0.0 7.0 0.00 0.44 0.00 55 1003.8
20260505051549 72 226 0.0 5.0 0.00 0.44 0.00 55 1003.5
20260505041549 73 293 1.0 7.0 0.00 0.44 0.44 53 1002.8
20260505040045 74 176 1.0 6.0 0.00 0.44 0.44 53 1003.2
20260505034544 74 270 0.0 6.0 0.00 0.44 0.44 53 1003.4
20260505033047 74 291 0.0 6.0 0.00 0.44 0.44 52 1003.5
20260505031544 75 119 0.0 4.0 0.00 0.44 0.44 51 1003.4
20260505030042 75 330 1.0 8.0 0.00 0.44 0.44 51 1003.4
20260505024544 75 331 0.0 2.0 0.00 0.44 0.44 51 1003.2
20260505023047 76 113 0.0 4.0 0.00 0.44 0.44 50 1002.9
20260505021542 76 226 1.0 5.0 0.00 0.44 0.44 49 1002.6
20260505020041 76 68 0.0 5.0 0.00 0.44 0.44 50 1002.3
20260505014541 77 75 0.0 4.0 0.00 0.44 0.44 49 1002.1
20260505013040 76 89 0.0 3.0 0.00 0.44 0.44 50 1001.9
20260505011549 77 340 0.0 2.0 0.00 0.44 0.44 50 1001.8
20260505010040 77 101 0.0 5.0 0.00 0.44 0.44 48 1001.7
20260505004540 78 254 0.0 3.0 0.00 0.44 0.44 49 1001.5
20260505003038 79 77 0.0 3.0 0.00 0.44 0.44 48 1001.4
20260505001538 79 96 0.0 4.0 0.00 0.44 0.44 47 1001.3
20260505000036 80 263 0.0 4.0 0.00 0.44 0.44 48 1001.2
20260504234536 80 266 0.0 3.0 0.00 0.44 0.44 47 1001.2
20260504233039 80 36 0.0 4.0 0.00 0.44 0.44 50 1001.2
20260504231532 80 226 0.0 3.0 0.00 0.44 0.44 51 1001.5
20260504230031 79 174 0.0 6.0 0.00 0.44 0.44 53 1001.6
20260504224529 79 150 0.0 4.0 0.00 0.44 0.44 52 1001.8
20260504223027 79 101 0.0 3.0 0.00 0.44 0.44 52 1002.2
20260504221526 79 324 0.0 4.0 0.00 0.44 0.44 50 1002.2
20260504220025 79 103 0.0 5.0 0.00 0.44 0.44 51 1002.3
20260504214524 79 117 0.0 10.0 0.00 0.44 0.44 53 1002.3
20260504213023 79 244 0.0 7.0 0.00 0.44 0.44 50 1002.5
20260504211520 79 112 0.0 6.0 0.00 0.44 0.44 54 1002.5
20260504210018 79 321 0.0 5.0 0.00 0.44 0.44 55 1002.7
20260504204515 78 166 1.0 6.0 0.00 0.44 0.44 55 1003.4
20260504203013 77 82 0.0 5.0 0.00 0.44 0.44 59 1003.2
20260504201511 77 57 1.0 5.0 0.00 0.44 0.44 57 1003.4
20260504200012 75 88 2.0 8.0 0.00 0.44 0.44 61 1003.2
20260504194504 74 108 0.0 7.0 0.00 0.44 0.44 68 1003.6
20260504193004 70 162 2.0 4.0 0.00 0.44 0.44 74 1003.6
20260504191506 65 46 0.0 4.0 0.00 0.44 0.44 83 1003.3
20260504190111 64 106 2.0 4.0 0.01 0.44 0.44 84 1004.0
20260504184616 64 315 0.0 1.0 0.19 0.44 0.44 84 1004.9
20260504183109 63 127 0.0 1.0 0.38 0.44 0.44 84 1004.7
20260504181558 62 141 0.0 2.0 0.39 0.44 0.44 84 1004.5
20260504180057 61 73 1.0 4.0 0.40 0.43 0.43 84 1004.0
20260504174557 62 51 1.0 3.0 0.22 0.23 0.23 82 1005.2
20260504173056 63 68 0.0 1.0 0.06 0.06 0.06 80 1005.4
20260504171549 64 86 0.0 2.0 0.04 0.04 0.04 75 1005.4